Tracking 20083 objects as of 8-Dec-2019
HD Live streaming from Space Station
objects crossing your sky now

RADUGA 17

Track RADUGA 17 now!
RADUGA 17 is classified as:


NORAD ID: 16250
Int'l Code: 1985-107A
Perigee: 35,783.8 km
Apogee: 35,855.2 km
Inclination: 13.4 °
Period: 1,437.4 minutes
Semi major axis: 42190 km
RCS: 3.981 m2 (large)
Launch date: November 15, 1985
Source: Commonwealth of Independent States (former USSR) (CIS)
Launch site: TYURATAM MISSILE AND SPACE COMPLEX (TTMTR)
aabbcc
Your satellite tracking list
Your tracking list is empty




NASA's NSSDC Master Catalog

Two Line Element Set (TLE):
1 16250U 85107A   19341.30690590 -.00000199 +00000-0 +00000-0 0  9995
2 16250 013.4428 337.7014 0008462 166.6766 018.4724 01.00180045127792
Source of the keplerian elements: AFSPC